Location: Binzen
(47.8658°N, 9.7968°E)
Time: 23:16:13
(UTC+00:00)

Daily predictions for brighter satellites

Satellite Brightness Start Highest point End
(mag) Time Altitude Azimuth Time Altitude Azimuth Time Altitude Azimuth
Cosmos 2227 Rocket 3.0 19:54:49 10° SSE 19:59:43 32° ESE 20:04:39 10° NE
Terra 1.8 19:55:45 10° SSE 20:00:27 79° ENE 20:05:10 10° N
COSMOS 2455 3.1 19:54:47 10° NNW 20:00:49 68° NE 20:06:49 10° SE
SPOT 5 3.7 19:57:31 10° S 20:01:51 47° W 20:06:27 10° NNW
Cosmos 2263 Rocket 3.7 20:01:05 10° SE 20:04:46 18° E 20:08:28 10° ENE
USA 276 1.5 20:03:05 10° W 20:04:58 44° SSW 20:07:02 10° SE
RESURS DK-1 3.8 20:04:42 10° SSE 20:07:28 18° ESE 20:10:15 10° ENE
Cosmos 1980 3.8 20:03:44 10° NNW 20:09:26 85° WSW 20:15:05 10° SSE
Cosmos 1300 3.0 20:06:52 10° NNW 20:09:56 49° W 20:12:58 10° S
Okean O Rocket 2.3 20:08:47 10° S 20:12:59 53° W 20:17:13 10° NNW
CZ-4B R/B 4.4 20:08:33 10° SSW 20:13:28 38° W 20:18:23 10° NNW
Spot 2 Rocket 3.6 20:08:37 10° SSE 20:13:39 72° ENE 20:18:44 10° N
Cosmos 1151 Rocket 4.2 20:11:28 10° SSW 20:15:32 44° WNW 20:19:39 10° N
Helios 1B rocket 3.7 20:14:24 10° SSW 20:17:45 33° W 20:21:08 10° NNW
CZ-4B R/B 4.4 20:16:37 10° SSW 20:19:40 27° W 20:22:41 10° NW
USA 238 DEB 4.2 20:15:25 10° NW 20:22:47 70° SW 20:30:44 10° SSE
USA 238 4.2 20:15:30 10° NW 20:22:53 71° SW 20:30:51 10° SSE
ERS-1 Rocket 3.5 20:18:58 10° S 20:23:54 57° W 20:28:51 10° NNW
Cosmos 1437 Rocket 3.9 20:21:19 11° SE 20:23:58 23° E 20:26:52 10° NE
Cosmos 921 Rocket 3.1 20:19:56 10° S 20:24:04 54° ESE 20:28:19 10° NNE
Cosmos 2219 4.4 20:20:53 10° SSE 20:25:14 23° E 20:29:38 10° NE
SL-14 R/B 3.2 20:28:16 10° S 20:32:09 71° E 20:36:04 10° NNE
Cosmos 2123 Rocket 4.4 20:27:11 10° SSE 20:33:07 46° E 20:39:03 10° NNE
SL-8 R/B 3.7 20:34:46 10° W 20:39:35 90° S 20:44:22 10° E
In-Cosmos 22 4.4 20:34:44 10° SSW 20:40:28 77° WNW 20:46:08 10° N
USA 290 4.2 20:41:32 13° ESE 20:42:07 13° E 20:43:42 10° ENE
Cosmos 2237 Rocket 2.8 20:37:40 10° NW 20:43:09 52° WSW 20:48:38 10° S
Cosmos 1459 Rocket 4.1 20:37:02 10° N 20:43:24 79° E 20:49:28 11° SSE
Cosmos 546 4.5 20:43:12 10° WSW 20:47:00 77° SSE 20:50:49 10° ENE
Meteor 1-15 Rocket 4.3 20:42:39 10° N 20:48:18 70° ENE 20:53:03 14° SSE
Cosmos 1802 Rocket 4.2 20:41:54 10° N 20:48:19 67° ENE 20:53:56 14° SSE
SL-4 R/B 3.5 20:47:40 16° SSE 20:48:20 17° SE 20:50:57 10° E
Meteor 2-10 Rocket 4.4 20:44:31 10° NNW 20:50:06 54° W 20:55:26 10° S
USA 305 2.3 20:47:27 10° SW 20:51:22 71° SE 20:54:43 10° ENE
Cosmos 1953 3.5 20:50:45 10° NNE 20:53:59 26° ENE 20:56:11 16° ESE
Okean-O 4.4 20:52:03 10° SSW 20:55:48 27° W 20:59:34 10° NW
Cosmos 1633 Rocket 4.1 20:55:59 10° NNW 21:00:03 42° W 21:04:07 10° SSW
Meteor 1-22 Rocket 4.2 20:55:04 10° NNW 21:00:25 80° W 21:05:15 14° S
Lacrosse 4 Rocket 1.5 20:56:55 10° NW 21:01:08 72° WSW 21:04:06 19° SSE
NOSS 3-4 (A) 3.9 20:57:10 10° WSW 21:02:29 58° NW 21:08:24 10° NE
NOSS 3-4 (C) 3.9 20:57:16 10° WSW 21:02:34 58° NW 21:08:30 10° NE
DNEPR-1 R/B 4.3 20:58:52 10° SSW 21:04:45 50° ESE 21:09:38 10° NE
Cosmos 1818 3.7 21:00:01 10° SW 21:05:27 80° NW 21:10:57 10° NE
Cosmos 2016 Rocket 4.1 21:01:09 10° N 21:07:31 77° E 21:12:39 17° SSE
Meteor 2-21 4.5 21:04:58 12° S 21:10:42 72° E 21:16:49 10° NNE
Cosmos 1455 3.9 21:09:05 10° NW 21:11:00 17° W 21:12:55 10° SW
Ariane Rocket 3.4 21:09:58 13° S 21:14:21 58° W 21:19:23 10° NNW
Cosmos 2297 Rocket 3.7 21:09:49 10° WSW 21:15:06 39° NW 21:20:25 10° NNE
USA 59 Rocket 2.5 21:15:19 10° N 21:16:20 11° NNE 21:17:24 10° NE
CZ-4C R/B 4.4 21:15:20 10° NE 21:17:50 20° E 21:18:25 19° ESE
SPOT 3 Rocket 4.2 21:14:36 12° S 21:19:07 49° W 21:24:08 10° NNW
GP-B 3.1 21:16:55 10° N 21:21:17 64° E 21:23:59 22° SSE
Cosmos 1269 Rocket 4.1 21:20:32 16° S 21:24:35 57° ESE 21:29:47 10° NNE
Cosmos 2084 Rocket 3.6 21:22:53 10° NW 21:26:58 56° SW 21:29:07 25° SSE
Meteor 1-12 Rocket 4.3 21:21:24 10° N 21:27:20 87° E 21:31:34 20° SSE
ATLAS CENTAUR R/B 2.5 21:25:59 10° WNW 21:29:15 27° WSW 21:31:05 18° SSW
Cosmos 489 Rocket 4.4 21:24:32 10° NNW 21:30:47 88° ENE 21:35:02 22° SSE
Cosmos 1933 Rocket 3.8 21:27:27 10° NNW 21:31:49 64° W 21:34:40 20° S
SL-16 R/B 2.4 21:32:26 10° NNW 21:38:02 63° WSW 21:41:38 22° S
Terra 4.3 21:36:15 10° WSW 21:38:34 14° W 21:40:54 10° WNW
NOSS 3 (A) 4.3 21:36:05 10° NW 21:38:37 88° ENE 21:39:33 40° SE
ALOS 2 4.4 21:37:03 13° ESE 21:39:42 22° ENE 21:43:06 10° NNE
Meteor 1-23 Rocket 4.4 21:35:30 11° SSW 21:40:47 70° WNW 21:46:25 10° N
Cosmos 2344 4.2 21:34:15 10° NW 21:42:09 67° NE 21:52:06 12° SE
DELTA 2 DEB (DPAF) 3.7 21:38:23 10° NNE 21:42:19 81° ESE 21:44:30 25° S
Cosmos 1733 Rocket 3.7 21:38:44 10° N 21:42:57 43° ENE 21:45:01 25° SE
Cosmos 2227 Rocket 3.2 21:38:08 10° SW 21:43:33 47° NW 21:49:02 10° NNE
RESURS DK-1 3.2 21:40:44 10° SW 21:44:36 48° NW 21:48:31 10° NNE
Cosmos 2233 Rocket 4.1 21:38:52 10° N 21:45:13 80° W 21:49:37 21° S
Cosmos 1869 Rocket 3.7 21:41:45 10° NNW 21:46:08 69° W 21:48:34 25° S
COSMOS 2455 4.4 21:41:29 10° NW 21:46:15 25° WSW 21:50:27 12° SSW
Meteor 1-21 4.3 21:42:07 15° SSW 21:46:57 79° WNW 21:52:44 10° N
Cosmos 2263 Rocket 2.3 21:42:17 10° SSW 21:47:58 79° WNW 21:53:43 10° NNE
Meteor 1-16 Rocket 4.3 21:42:39 10° NNW 21:48:27 80° W 21:52:16 23° S
Okean 2 3.2 21:50:02 32° S 21:51:42 68° E 21:55:35 10° NNE
Okean 3 3.3 21:50:57 30° S 21:52:50 69° E 21:56:55 10° NNE
CZ-2C R/B 4.1 21:49:42 10° NNE 21:54:05 46° E 21:56:01 29° SSE
IRIDIUM 106 4.4 21:51:50 26° SSE 21:54:45 67° E 21:59:56 10° N
Aureole 3 Rocket 3.7 21:53:18 10° NNE 21:56:10 30° ENE 21:57:14 25° ESE
Cosmos 1943 3.3 21:53:57 10° NNW 21:59:41 74° ENE 22:03:04 25° SE
ASTEX 1 3.5 21:55:02 10° NNE 21:59:57 61° E 22:02:22 29° SSE
SeaSat 1 4.2 21:58:19 10° E 22:02:19 26° NE 22:06:20 10° N
Cosmos 2346 Rocket 4.5 21:59:10 23° S 22:03:20 82° E 22:09:34 10° N
Cosmos 2219 3.6 22:03:11 10° SW 22:08:52 65° WNW 22:14:37 10° NNE
Cosmos 1763 Rocket 3.7 22:04:33 10° NNW 22:09:41 62° ENE 22:12:23 27° SE
MetOp-A 3.7 22:10:28 31° SSE 22:12:46 83° ENE 22:17:20 10° NNW
Cosmos 1862 Rocket 3.6 22:11:30 34° S 22:13:19 68° E 22:17:43 10° NNE
USA 290 3.5 22:14:13 18° WSW 22:16:08 38° WNW 22:19:11 10° N
Cosmos 1271 Rocket 3.9 22:16:29 24° ESE 22:16:56 24° E 22:19:56 10° NE
Cosmos 1603 4.1 22:11:38 10° NNW 22:17:10 56° ENE 22:20:41 22° SE
Cosmos 2082 3.9 22:12:59 12° SW 22:18:19 71° WNW 22:24:04 10° NNE
Cosmos 2292 Rocket 2.7 22:18:13 50° SW 22:18:47 67° W 22:21:41 10° N
USA 305 4.0 22:16:46 10° W 22:20:06 33° NNW 22:22:48 10° NE
Okean 1-7 3.2 22:19:41 37° SSE 22:20:58 54° E 22:25:01 10° NNE
SL-8 R/B 4.1 22:17:13 10° W 22:21:42 42° SSW 22:22:54 35° S
ARIANE 5 R/B 2.6 22:20:49 35° S 22:22:40 83° WSW 22:27:10 10° NNW
SWAS 4.2 22:19:18 10° NNW 22:23:23 84° WSW 22:24:44 41° SSE
SL-4 R/B 1.8 22:21:43 10° SW 22:25:49 69° SSE 22:29:48 10° ENE
Cosmos 1953 3.9 22:26:05 10° NW 22:29:09 24° W 22:30:44 18° SW
Cosmos 1140 Rocket 3.9 22:26:48 16° SW 22:30:53 58° WNW 22:35:57 10° NNE
Spot 4 3.8 22:30:33 34° SSE 22:32:40 88° ENE 22:37:32 10° NNW
Cosmos 1703 3.6 22:34:57 33° SW 22:36:06 49° WNW 22:39:31 10° N
Cosmos 2227 4.1 22:33:33 28° SSW 22:36:33 73° ESE 22:42:10 10° NNE
PSLV R/B 4.2 22:33:08 10° NNE 22:37:14 42° E 22:38:27 34° SE
NOSS 3-1 (C) 4.0 22:30:29 10° NW 22:37:40 79° SW 22:43:29 24° SSE
SJ 16-02 3.0 22:38:57 19° ESE 22:39:38 19° E 22:42:44 10° NE
Cosmos 1072 Rocket 4.4 22:35:54 10° N 22:42:05 87° W 22:45:16 31° S
Cosmos 1892 2.7 22:43:00 41° WSW 22:43:29 45° WNW 22:46:24 10° N
USA 307 2.9 22:54:11 45° SE 22:54:11 45° SE 22:57:44 10° ENE
Cosmos 407 Rocket 3.7 22:50:55 23° SW 22:54:03 65° WNW 22:59:08 10° NNE
Cosmos 2228 Rocket 3.8 22:54:32 26° SW 22:56:41 48° WNW 23:01:00 10° N
Cosmos 1844 Rocket 2.6 22:54:47 30° SSW 22:57:43 81° ESE 23:03:25 10° NNE
Cosmos 1703 Rocket 3.5 22:59:24 43° SSE 23:00:41 68° E 23:04:58 10° NNE
Cosmos 2251 Rocket 3.5 22:59:05 30° SSW 23:01:47 86° WNW 23:07:11 10° NNE
USA 234 3.9 22:55:55 10° ENE 23:01:48 35° SE 23:03:50 29° SSE
Cosmos 1782 Rocket 4.2 22:57:54 10° N 23:02:12 48° ENE 23:03:54 31° SE
Cosmos 1844 3.6 22:59:50 32° SSW 23:02:32 78° ESE 23:08:06 10° NNE
Cosmos 1816 Rocket 4.5 22:59:37 30° S 23:02:55 90° E 23:09:16 10° N
OPS 6432 4.4 22:59:40 10° NW 23:02:57 67° NE 23:03:35 50° ESE
USA 59 Rocket 0.2 23:02:22 10° NNW 23:05:51 59° NE 23:08:26 23° ESE
Landsat 5 4.2 23:03:55 10° N 23:08:01 47° WNW 23:09:56 27° SW
Cosmos 1954 Rocket 4.0 23:07:46 36° S 23:09:54 71° ESE 23:15:05 10° NNE
ATLAS 3B R/B 4.1 23:04:37 10° NW 23:12:09 44° NE 23:19:27 10° ESE
Cosmos 540 Rocket 3.8 23:07:49 10° NNW 23:12:45 49° WSW 23:14:32 34° SSW
Cosmos 1190 Rocket 4.0 23:12:31 32° SSW 23:15:03 85° WNW 23:20:23 10° NNE
Tsikada Rocket 4.1 23:12:12 31° SSE 23:15:15 66° E 23:21:28 10° NNE
ALOS 2 3.2 23:14:27 34° SW 23:15:46 45° W 23:20:00 10° NNW
Meteor 1-24 Rocket 3.9 23:13:40 32° S 23:16:31 72° E 23:22:25 10° NNE
Cosmos 1606 3.4 23:20:08 10° N 23:22:54 30° ENE 23:23:21 29° E
Cosmos 468 Rocket 4.2 23:18:34 10° NNW 23:23:37 56° WSW 23:25:26 36° SSW
Cosmos 841 Rocket 3.5 23:19:39 10° NNW 23:24:56 77° ENE 23:27:33 30° SSE
NOSS 3-1 (A) 4.0 23:18:50 10° NW 23:26:02 79° SW 23:32:25 20° SSE
ATLAS 2AS CENTAUR R/B 2.9 23:25:06 29° S 23:28:42 58° ESE 23:35:30 10° NE
BREEZE-M DEB (TANK) 3.7 23:28:12 33° S 23:29:22 38° SSE 23:32:22 10° E
Meteor 2-5 Rocket 3.8 23:27:46 33° S 23:30:38 85° E 23:36:38 10° NNE
H-2A R/B 3.8 23:31:18 19° ESE 23:33:05 28° ENE 23:36:13 10° N
Meteor 2-17 Rocket 4.4 23:30:04 32° S 23:33:05 88° W 23:39:11 10° N
Cosmos 2242 Rocket 4.4 23:31:50 30° SE 23:33:23 40° E 23:37:33 10° NNE
Cosmos 2034 Rocket 4.3 23:28:48 10° NNW 23:34:54 58° W 23:37:59 30° SSW
Cosmos 1833 Rocket 3.5 23:33:42 10° NNW 23:39:09 48° NE 23:44:08 12° SE
SeaSat 1 2.5 23:37:33 37° S 23:39:22 62° WSW 23:44:15 10° NW
Cosmos 1908 Rocket 4.5 23:36:46 10° NNW 23:40:46 36° W 23:42:02 30° SW
Cosmos 1271 Rocket 4.3 23:50:19 20° WSW 23:51:35 24° WNW 23:54:36 10° NNW
